Time,TemperatureF,DewpointF,PressureIn,WindDirection,WindDirectionDegrees,WindSpeedMPH,WindSpeedGustMPH,Humidity,HourlyPrecipIn,Conditions,Clouds,dailyrainin,SolarRadiationWatts/m^2,SoftwareType,DateUTC
2013-07-30 00:01:00,71.0,70.1,30.04,SSE,158,0.0,0.0,97,0.00,,,0.00,0,Wunderground v.1.15,2013-07-30 04:01:00,
2013-07-30 00:02:00,71.0,70.1,30.04,SSE,158,0.0,0.0,97,0.00,,,0.00,0,Wunderground v.1.15,2013-07-30 04:02:00,
2013-07-30 00:05:00,70.9,70.0,30.04,SSE,158,0.0,0.0,97,0.00,,,0.00,0,Wunderground v.1.15,2013-07-30 04:05:00,
2013-07-30 00:11:00,70.7,69.8,30.04,SSE,158,0.0,0.0,97,0.00,,,0.00,0,Wunderground v.1.15,2013-07-30 04:11:00,
2013-07-30 00:12:00,70.7,69.8,30.04,SSE,158,0.0,0.0,97,0.00,,,0.00,0,Wunderground v.1.15,2013-07-30 04:12:00,
2013-07-30 00:18:00,70.6,69.7,30.04,SSE,158,0.0,0.0,97,0.00,,,0.00,0,Wunderground v.1.15,2013-07-30 04:18:00,
2013-07-30 00:24:00,70.4,69.5,30.04,SSE,158,0.0,0.0,97,0.00,,,0.00,0,Wunderground v.1.15,2013-07-30 04:24:00,
2013-07-30 00:29:00,70.3,69.4,30.04,SSE,158,0.0,0.0,97,0.00,,,0.00,0,Wunderground v.1.15,2013-07-30 04:29:00,
2013-07-30 00:35:00,70.1,69.2,30.04,SSE,158,0.0,0.0,97,0.00,,,0.00,0,Wunderground v.1.15,2013-07-30 04:35:00,
2013-07-30 00:40:00,69.9,69.0,30.04,SSE,158,0.0,0.0,97,0.00,,,0.00,0,Wunderground v.1.15,2013-07-30 04:40:00,
2013-07-30 00:45:00,69.9,69.0,30.03,SSE,158,0.0,0.0,97,0.00,,,0.00,0,Wunderground v.1.15,2013-07-30 04:45:00,
2013-07-30 00:51:00,69.8,68.9,30.03,SSE,158,0.0,0.0,97,0.00,,,0.00,0,Wunderground v.1.15,2013-07-30 04:51:00,
2013-07-30 00:56:00,69.7,68.8,30.03,SSE,158,0.0,0.0,97,0.00,,,0.00,0,Wunderground v.1.15,2013-07-30 04:56:00,
2013-07-30 01:02:00,69.6,68.7,30.04,SSE,158,0.0,0.0,97,0.00,,,0.00,0,Wunderground v.1.15,2013-07-30 05:02:00,
2013-07-30 01:07:00,69.3,68.4,30.03,SSE,158,0.0,0.0,97,0.00,,,0.00,0,Wunderground v.1.15,2013-07-30 05:07:00,
2013-07-30 01:13:00,69.2,68.3,30.03,SSE,158,0.0,0.0,97,0.00,,,0.00,0,Wunderground v.1.15,2013-07-30 05:13:00,
2013-07-30 01:19:00,69.0,68.1,30.03,SSE,158,0.0,0.0,97,0.00,,,0.00,0,Wunderground v.1.15,2013-07-30 05:19:00,
2013-07-30 01:24:00,69.1,68.5,30.03,SSE,158,0.0,0.0,98,0.00,,,0.00,0,Wunderground v.1.15,2013-07-30 05:24:00,
2013-07-30 01:30:00,69.0,68.4,30.03,SSE,158,0.0,0.0,98,0.00,,,0.00,0,Wunderground v.1.15,2013-07-30 05:30:00,
2013-07-30 01:35:00,68.8,68.2,30.03,SSE,158,0.0,0.0,98,0.00,,,0.00,0,Wunderground v.1.15,2013-07-30 05:35:00,
2013-07-30 01:40:00,68.9,68.3,30.03,SSE,158,0.0,0.0,98,0.00,,,0.00,0,Wunderground v.1.15,2013-07-30 05:40:00,
2013-07-30 01:47:00,68.8,68.2,30.03,SSE,158,0.0,0.0,98,0.00,,,0.00,0,Wunderground v.1.15,2013-07-30 05:47:00,
2013-07-30 01:53:00,68.6,68.0,30.03,SSE,158,0.0,0.0,98,0.00,,,0.00,0,Wunderground v.1.15,2013-07-30 05:53:00,
2013-07-30 01:58:00,68.5,67.9,30.03,SSE,158,0.0,0.0,98,0.00,,,0.00,0,Wunderground v.1.15,2013-07-30 05:58:00,
2013-07-30 02:03:00,68.4,67.8,30.03,SSE,158,0.0,0.0,98,0.00,,,0.00,0,Wunderground v.1.15,2013-07-30 06:03:00,
2013-07-30 02:09:00,68.3,67.7,30.03,SSE,158,0.0,0.0,98,0.00,,,0.00,0,Wunderground v.1.15,2013-07-30 06:09:00,
2013-07-30 02:15:00,68.0,67.4,30.03,SSE,158,0.0,0.0,98,0.00,,,0.00,0,Wunderground v.1.15,2013-07-30 06:15:00,
2013-07-30 02:20:00,67.8,67.2,30.03,SSE,158,0.0,0.0,98,0.00,,,0.00,0,Wunderground v.1.15,2013-07-30 06:20:00,
2013-07-30 02:26:00,67.7,67.1,30.03,SSE,158,0.0,0.0,98,0.00,,,0.00,0,Wunderground v.1.15,2013-07-30 06:26:00,
2013-07-30 02:31:00,67.6,67.0,30.03,SSE,158,0.0,0.0,98,0.00,,,0.00,0,Wunderground v.1.15,2013-07-30 06:31:00,
2013-07-30 02:36:00,67.7,67.1,30.03,SSE,158,0.0,0.0,98,0.00,,,0.00,0,Wunderground v.1.15,2013-07-30 06:36:00,
2013-07-30 02:41:00,67.8,67.2,30.04,SSE,158,0.0,0.0,98,0.00,,,0.00,0,Wunderground v.1.15,2013-07-30 06:41:00,
2013-07-30 02:48:00,67.6,67.0,30.04,SSE,158,0.0,0.0,98,0.00,,,0.00,0,Wunderground v.1.15,2013-07-30 06:48:00,
2013-07-30 02:53:00,67.5,66.9,30.04,SSE,158,0.0,0.0,98,0.00,,,0.00,0,Wunderground v.1.15,2013-07-30 06:53:00,
2013-07-30 02:58:00,67.4,66.8,30.04,SSE,158,0.0,0.0,98,0.00,,,0.00,0,Wunderground v.1.15,2013-07-30 06:58:00,
2013-07-30 03:03:00,67.4,66.8,30.04,SSE,158,0.0,0.0,98,0.00,,,0.00,0,Wunderground v.1.15,2013-07-30 07:03:00,
2013-07-30 03:09:00,67.3,66.7,30.04,SSE,158,0.0,0.0,98,0.00,,,0.00,0,Wunderground v.1.15,2013-07-30 07:09:00,
2013-07-30 03:15:00,67.1,66.5,30.04,SSE,158,0.0,0.0,98,0.00,,,0.00,0,Wunderground v.1.15,2013-07-30 07:15:00,
2013-07-30 03:21:00,66.9,66.3,30.03,SSE,158,0.0,0.0,98,0.00,,,0.00,0,Wunderground v.1.15,2013-07-30 07:21:00,
2013-07-30 03:27:00,66.7,66.1,30.04,SW,231,0.0,0.0,98,0.00,,,0.00,0,Wunderground v.1.15,2013-07-30 07:27:00,
2013-07-30 03:33:00,66.5,65.9,30.04,SW,231,0.0,0.0,98,0.00,,,0.00,0,Wunderground v.1.15,2013-07-30 07:33:00,
2013-07-30 03:38:00,66.3,65.7,30.04,WNW,282,0.0,0.0,98,0.00,,,0.00,0,Wunderground v.1.15,2013-07-30 07:38:00,
2013-07-30 03:44:00,66.2,65.6,30.04,WNW,282,0.0,0.0,98,0.00,,,0.00,0,Wunderground v.1.15,2013-07-30 07:44:00,
2013-07-30 03:50:00,66.0,65.4,30.04,WNW,282,0.0,0.0,98,0.00,,,0.00,0,Wunderground v.1.15,2013-07-30 07:50:00,
2013-07-30 03:55:00,66.0,65.4,30.03,WNW,282,0.0,0.0,98,0.00,,,0.00,0,Wunderground v.1.15,2013-07-30 07:55:00,
2013-07-30 04:00:00,65.9,65.3,30.03,WNW,282,0.0,0.0,98,0.00,,,0.00,0,Wunderground v.1.15,2013-07-30 08:00:00,
2013-07-30 04:06:00,65.8,65.2,30.03,WNW,282,0.0,0.0,98,0.00,,,0.00,0,Wunderground v.1.15,2013-07-30 08:06:00,
2013-07-30 04:12:00,65.7,65.1,30.03,WNW,282,0.0,0.0,98,0.00,,,0.00,0,Wunderground v.1.15,2013-07-30 08:12:00,
2013-07-30 04:17:00,65.6,65.0,30.03,WNW,282,0.0,0.0,98,0.00,,,0.00,0,Wunderground v.1.15,2013-07-30 08:17:00,
2013-07-30 04:23:00,65.5,64.9,30.03,WNW,282,0.0,0.0,98,0.00,,,0.00,0,Wunderground v.1.15,2013-07-30 08:23:00,
2013-07-30 04:28:00,65.4,64.8,30.03,WNW,282,0.0,0.0,98,0.00,,,0.00,0,Wunderground v.1.15,2013-07-30 08:28:00,
2013-07-30 04:33:00,65.4,64.8,30.03,WNW,282,0.0,0.0,98,0.00,,,0.00,0,Wunderground v.1.15,2013-07-30 08:33:00,
2013-07-30 04:38:00,65.4,64.8,30.03,WNW,282,0.0,0.0,98,0.00,,,0.00,0,Wunderground v.1.15,2013-07-30 08:38:00,
2013-07-30 04:43:00,65.5,65.2,30.03,WNW,282,0.0,0.0,99,0.00,,,0.00,0,Wunderground v.1.15,2013-07-30 08:43:00,
2013-07-30 04:48:00,65.3,64.7,30.03,WNW,282,0.0,0.0,98,0.00,,,0.00,0,Wunderground v.1.15,2013-07-30 08:48:00,
2013-07-30 04:54:00,65.3,64.7,30.04,WNW,282,0.0,0.0,98,0.00,,,0.00,0,Wunderground v.1.15,2013-07-30 08:54:00,
2013-07-30 04:59:00,65.2,64.6,30.04,WNW,282,0.0,0.0,98,0.00,,,0.00,0,Wunderground v.1.15,2013-07-30 08:59:00,
2013-07-30 05:04:00,64.9,64.3,30.04,WNW,282,0.0,0.0,98,0.00,,,0.00,0,Wunderground v.1.15,2013-07-30 09:04:00,
2013-07-30 05:10:00,64.7,64.1,30.04,WNW,282,0.0,0.0,98,0.00,,,0.00,0,Wunderground v.1.15,2013-07-30 09:10:00,
2013-07-30 05:16:00,64.4,63.8,30.05,WNW,282,0.0,0.0,98,0.00,,,0.00,0,Wunderground v.1.15,2013-07-30 09:16:00,
2013-07-30 05:22:00,64.3,63.7,30.05,WNW,282,0.0,0.0,98,0.00,,,0.00,0,Wunderground v.1.15,2013-07-30 09:22:00,
2013-07-30 05:27:00,64.1,63.5,30.05,WNW,282,0.0,0.0,98,0.00,,,0.00,0,Wunderground v.1.15,2013-07-30 09:27:00,
2013-07-30 05:33:00,64.1,63.5,30.05,WNW,282,0.0,0.0,98,0.00,,,0.00,0,Wunderground v.1.15,2013-07-30 09:33:00,
2013-07-30 05:38:00,64.1,63.5,30.05,WNW,282,0.0,0.0,98,0.00,,,0.00,0,Wunderground v.1.15,2013-07-30 09:38:00,
2013-07-30 05:43:00,64.0,63.4,30.05,WNW,282,0.0,0.0,98,0.00,,,0.00,0,Wunderground v.1.15,2013-07-30 09:43:00,
2013-07-30 05:48:00,63.9,63.3,30.05,WNW,282,0.0,0.0,98,0.00,,,0.00,0,Wunderground v.1.15,2013-07-30 09:48:00,
2013-07-30 05:54:00,63.8,63.2,30.06,WNW,282,0.0,0.0,98,0.00,,,0.00,0,Wunderground v.1.15,2013-07-30 09:54:00,
2013-07-30 06:00:00,63.8,63.2,30.06,WNW,282,0.0,0.0,98,0.00,,,0.00,0,Wunderground v.1.15,2013-07-30 10:00:00,
2013-07-30 06:06:00,63.8,63.2,30.06,WNW,282,0.0,0.0,98,0.00,,,0.00,0,Wunderground v.1.15,2013-07-30 10:06:00,
2013-07-30 06:11:00,63.6,63.0,30.06,WNW,282,0.0,0.0,98,0.00,,,0.00,0,Wunderground v.1.15,2013-07-30 10:11:00,
2013-07-30 06:16:00,63.4,62.8,30.06,WNW,282,0.0,0.0,98,0.00,,,0.00,5,Wunderground v.1.15,2013-07-30 10:16:00,
2013-07-30 06:22:00,63.4,62.8,30.06,WNW,282,0.0,0.0,98,0.00,,,0.00,5,Wunderground v.1.15,2013-07-30 10:22:00,
2013-07-30 06:27:00,63.2,62.6,30.06,WNW,282,0.0,0.0,98,0.00,,,0.00,7,Wunderground v.1.15,2013-07-30 10:27:00,
2013-07-30 06:33:00,63.1,62.5,30.06,WNW,282,0.0,0.0,98,0.00,,,0.00,7,Wunderground v.1.15,2013-07-30 10:33:00,
2013-07-30 06:38:00,63.0,62.4,30.07,WNW,282,0.0,0.0,98,0.00,,,0.00,7,Wunderground v.1.15,2013-07-30 10:38:00,
2013-07-30 06:44:00,63.1,62.5,30.07,WNW,282,0.0,0.0,98,0.00,,,0.00,7,Wunderground v.1.15,2013-07-30 10:44:00,
2013-07-30 06:50:00,63.1,62.8,30.07,WNW,282,0.0,0.0,99,0.00,,,0.00,9,Wunderground v.1.15,2013-07-30 10:50:00,
2013-07-30 06:56:00,63.0,62.7,30.07,WNW,282,0.0,0.0,99,0.00,,,0.00,9,Wunderground v.1.15,2013-07-30 10:56:00,
2013-07-30 07:01:00,62.9,62.6,30.07,WNW,282,0.0,0.0,99,0.00,,,0.00,14,Wunderground v.1.15,2013-07-30 11:01:00,
2013-07-30 07:07:00,62.6,62.0,30.07,WNW,282,0.0,0.0,98,0.00,,,0.00,21,Wunderground v.1.15,2013-07-30 11:07:00,
2013-07-30 07:12:00,62.5,61.9,30.07,WNW,282,0.0,0.0,98,0.00,,,0.00,19,Wunderground v.1.15,2013-07-30 11:12:00,
2013-07-30 07:17:00,62.5,61.9,30.07,WNW,282,0.0,0.0,98,0.00,,,0.00,23,Wunderground v.1.15,2013-07-30 11:17:00,
2013-07-30 07:22:00,62.5,61.9,30.07,WNW,283,0.0,0.0,98,0.00,,,0.00,32,Wunderground v.1.15,2013-07-30 11:22:00,
2013-07-30 07:28:00,62.8,61.9,30.08,West,273,0.0,0.0,97,0.00,,,0.00,28,Wunderground v.1.15,2013-07-30 11:28:00,
2013-07-30 07:33:00,63.0,62.1,30.08,West,273,0.0,0.0,97,0.00,,,0.00,33,Wunderground v.1.15,2013-07-30 11:33:00,
2013-07-30 07:38:00,63.2,62.0,30.08,West,263,0.0,1.0,96,0.00,,,0.00,28,Wunderground v.1.15,2013-07-30 11:38:00,
2013-07-30 07:44:00,63.4,62.2,30.08,West,263,0.0,0.0,96,0.00,,,0.00,40,Wunderground v.1.15,2013-07-30 11:44:00,
2013-07-30 07:49:00,63.8,62.3,30.08,WNW,287,0.0,0.0,95,0.00,,,0.00,46,Wunderground v.1.15,2013-07-30 11:49:00,
2013-07-30 07:54:00,64.3,62.5,30.08,WNW,295,0.0,0.0,94,0.00,,,0.00,47,Wunderground v.1.15,2013-07-30 11:54:00,
2013-07-30 08:00:00,64.8,62.7,30.08,North,5,0.0,0.0,93,0.00,,,0.00,44,Wunderground v.1.15,2013-07-30 12:00:00,
2013-07-30 08:06:00,65.3,62.9,30.08,NW,318,0.0,0.0,92,0.00,,,0.00,46,Wunderground v.1.15,2013-07-30 12:06:00,
2013-07-30 08:12:00,65.8,62.5,30.08,North,5,0.0,1.0,89,0.00,,,0.00,47,Wunderground v.1.15,2013-07-30 12:12:00,
2013-07-30 08:17:00,66.3,63.3,30.08,WNW,299,0.0,1.0,90,0.00,,,0.00,97,Wunderground v.1.15,2013-07-30 12:17:00,
2013-07-30 08:22:00,66.7,62.7,30.08,NNW,329,0.0,1.0,87,0.00,,,0.00,98,Wunderground v.1.15,2013-07-30 12:22:00,
2013-07-30 08:28:00,67.2,63.8,30.08,WNW,296,0.0,2.0,89,0.00,,,0.00,81,Wunderground v.1.15,2013-07-30 12:28:00,
2013-07-30 08:33:00,67.9,63.9,30.08,WNW,297,0.0,0.0,87,0.00,,,0.00,98,Wunderground v.1.15,2013-07-30 12:33:00,
2013-07-30 08:38:00,68.5,63.1,30.08,WNW,294,0.0,2.0,83,0.00,,,0.00,72,Wunderground v.1.15,2013-07-30 12:38:00,
2013-07-30 08:44:00,68.8,62.0,30.08,NNW,329,0.0,2.0,79,0.00,,,0.00,77,Wunderground v.1.15,2013-07-30 12:44:00,
2013-07-30 08:49:00,69.2,63.1,30.08,WNW,283,0.0,2.0,81,0.00,,,0.00,135,Wunderground v.1.15,2013-07-30 12:49:00,
2013-07-30 08:55:00,69.6,63.2,30.09,WNW,283,0.0,0.0,80,0.00,,,0.00,60,Wunderground v.1.15,2013-07-30 12:55:00,
2013-07-30 09:00:00,70.2,62.6,30.08,WNW,302,0.0,0.0,77,0.00,,,0.00,79,Wunderground v.1.15,2013-07-30 13:00:00,
2013-07-30 09:05:00,70.6,63.8,30.08,WNW,302,0.0,2.0,79,0.00,,,0.00,84,Wunderground v.1.15,2013-07-30 13:05:00,
2013-07-30 09:11:00,71.0,64.5,30.08,West,270,0.0,2.0,80,0.00,,,0.00,288,Wunderground v.1.15,2013-07-30 13:11:00,
2013-07-30 09:16:00,71.3,63.3,30.08,West,274,0.0,2.0,76,0.00,,,0.00,69,Wunderground v.1.15,2013-07-30 13:16:00,
2013-07-30 09:21:00,71.4,62.7,30.08,West,267,0.0,1.0,74,0.00,,,0.00,105,Wunderground v.1.15,2013-07-30 13:21:00,
2013-07-30 09:26:00,71.4,61.9,30.08,West,264,0.0,2.0,72,0.00,,,0.00,95,Wunderground v.1.15,2013-07-30 13:26:00,
2013-07-30 09:32:00,71.5,62.4,30.09,NNW,343,0.0,1.0,73,0.00,,,0.00,111,Wunderground v.1.15,2013-07-30 13:32:00,
2013-07-30 09:37:00,71.6,62.5,30.09,NW,325,0.0,1.0,73,0.00,,,0.00,74,Wunderground v.1.15,2013-07-30 13:37:00,
2013-07-30 09:43:00,71.8,63.1,30.09,SW,223,0.0,1.0,74,0.00,,,0.00,65,Wunderground v.1.15,2013-07-30 13:43:00,
2013-07-30 09:49:00,71.9,61.6,30.09,NNW,331,1.0,3.0,70,0.00,,,0.00,65,Wunderground v.1.15,2013-07-30 13:49:00,
2013-07-30 09:54:00,72.2,61.5,30.09,North,9,1.0,2.0,69,0.00,,,0.00,97,Wunderground v.1.15,2013-07-30 13:54:00,
2013-07-30 09:59:00,72.6,61.4,30.09,SSW,206,0.0,2.0,68,0.00,,,0.00,81,Wunderground v.1.15,2013-07-30 13:59:00,
2013-07-30 10:04:00,72.8,62.0,30.09,NE,34,0.0,1.0,69,0.00,,,0.00,179,Wunderground v.1.15,2013-07-30 14:04:00,
2013-07-30 10:09:00,73.3,64.1,30.09,WNW,294,0.0,2.0,73,0.00,,,0.00,104,Wunderground v.1.15,2013-07-30 14:09:00,
2013-07-30 10:15:00,73.8,62.2,30.09,NNW,330,1.0,3.0,67,0.00,,,0.00,163,Wunderground v.1.15,2013-07-30 14:15:00,
2013-07-30 10:20:00,74.3,62.6,30.09,WNW,284,1.0,1.0,67,0.00,,,0.00,288,Wunderground v.1.15,2013-07-30 14:20:00,
2013-07-30 10:26:00,75.2,62.6,30.09,WNW,289,1.0,2.0,65,0.00,,,0.00,789,Wunderground v.1.15,2013-07-30 14:26:00,
2013-07-30 10:32:00,75.2,63.5,30.09,North,5,1.0,2.0,67,0.00,,,0.00,800,Wunderground v.1.15,2013-07-30 14:32:00,
2013-07-30 10:37:00,76.7,63.6,30.09,WNW,287,0.0,2.0,64,0.00,,,0.00,817,Wunderground v.1.15,2013-07-30 14:37:00,
2013-07-30 10:43:00,76.6,63.1,30.09,West,269,1.0,1.0,63,0.00,,,0.00,826,Wunderground v.1.15,2013-07-30 14:43:00,
2013-07-30 10:44:00,76.9,64.7,30.09,NW,321,1.0,2.0,66,0.00,,,0.00,828,Wunderground v.1.15,2013-07-30 14:44:00,
2013-07-30 10:50:00,77.7,62.2,30.09,NNW,329,1.0,1.0,59,0.00,,,0.00,846,Wunderground v.1.15,2013-07-30 14:50:00,
2013-07-30 10:56:00,77.7,62.7,30.09,West,263,0.0,2.0,60,0.00,,,0.00,856,Wunderground v.1.15,2013-07-30 14:56:00,
2013-07-30 11:02:00,78.9,62.4,30.09,WNW,290,1.0,1.0,57,0.00,,,0.00,868,Wunderground v.1.15,2013-07-30 15:02:00,
2013-07-30 11:08:00,78.0,61.5,30.09,NE,43,1.0,1.0,57,0.00,,,0.00,881,Wunderground v.1.15,2013-07-30 15:08:00,
2013-07-30 11:14:00,79.4,61.8,30.09,WNW,287,1.0,3.0,55,0.00,,,0.00,889,Wunderground v.1.15,2013-07-30 15:14:00,
2013-07-30 11:19:00,79.8,62.7,30.09,NW,315,1.0,3.0,56,0.00,,,0.00,896,Wunderground v.1.15,2013-07-30 15:19:00,
2013-07-30 11:24:00,80.2,63.6,30.09,West,274,1.0,1.0,57,0.00,,,0.00,898,Wunderground v.1.15,2013-07-30 15:24:00,
2013-07-30 11:30:00,79.9,59.6,30.09,East,80,1.0,1.0,50,0.00,,,0.00,909,Wunderground v.1.15,2013-07-30 15:30:00,
2013-07-30 11:35:00,79.1,60.5,30.09,NE,38,0.0,2.0,53,0.00,,,0.00,911,Wunderground v.1.15,2013-07-30 15:35:00,
2013-07-30 11:40:00,79.8,62.7,30.08,NW,311,0.0,1.0,56,0.00,,,0.00,919,Wunderground v.1.15,2013-07-30 15:40:00,
2013-07-30 11:45:00,80.7,60.3,30.08,North,5,1.0,3.0,50,0.00,,,0.00,925,Wunderground v.1.15,2013-07-30 15:45:00,
2013-07-30 11:51:00,80.3,61.1,30.08,NW,315,1.0,2.0,52,0.00,,,0.00,933,Wunderground v.1.15,2013-07-30 15:51:00,
2013-07-30 11:56:00,80.4,60.6,30.08,NNW,341,1.0,3.0,51,0.00,,,0.00,947,Wunderground v.1.15,2013-07-30 15:56:00,
2013-07-30 12:02:00,80.2,61.0,30.08,North,355,1.0,1.0,52,0.00,,,0.00,939,Wunderground v.1.15,2013-07-30 16:02:00,
2013-07-30 12:08:00,79.4,60.2,30.08,NNE,18,1.0,1.0,52,0.00,,,0.00,76,Wunderground v.1.15,2013-07-30 16:08:00,
2013-07-30 12:13:00,79.3,60.1,30.08,WNW,286,1.0,2.0,52,0.00,,,0.00,76,Wunderground v.1.15,2013-07-30 16:13:00,
2013-07-30 12:18:00,79.3,60.1,30.08,North,355,1.0,5.0,52,0.00,,,0.00,84,Wunderground v.1.15,2013-07-30 16:18:00,
2013-07-30 12:23:00,78.9,58.1,30.08,North,360,1.0,2.0,49,0.00,,,0.00,86,Wunderground v.1.15,2013-07-30 16:23:00,
2013-07-30 12:29:00,78.9,58.7,30.08,NW,304,1.0,2.0,50,0.00,,,0.00,127,Wunderground v.1.15,2013-07-30 16:29:00,
2013-07-30 12:34:00,78.5,57.7,30.08,NW,317,1.0,2.0,49,0.00,,,0.00,118,Wunderground v.1.15,2013-07-30 16:34:00,
2013-07-30 12:39:00,78.6,57.3,30.08,NE,42,1.0,2.0,48,0.00,,,0.00,127,Wunderground v.1.15,2013-07-30 16:39:00,
2013-07-30 12:44:00,78.0,57.9,30.07,West,259,1.0,4.0,50,0.00,,,0.00,512,Wunderground v.1.15,2013-07-30 16:44:00,
2013-07-30 12:50:00,78.3,59.2,30.07,North,350,1.0,1.0,52,0.00,,,0.00,132,Wunderground v.1.15,2013-07-30 16:50:00,
2013-07-30 12:55:00,78.4,60.4,30.07,WNW,303,1.0,1.0,54,0.00,,,0.00,100,Wunderground v.1.15,2013-07-30 16:55:00,
2013-07-30 13:01:00,77.9,58.9,30.07,West,277,1.0,2.0,52,0.00,,,0.00,111,Wunderground v.1.15,2013-07-30 17:01:00,
2013-07-30 13:06:00,77.8,59.3,30.07,WNW,295,1.0,2.0,53,0.00,,,0.00,123,Wunderground v.1.15,2013-07-30 17:06:00,
2013-07-30 13:12:00,77.7,60.2,30.07,West,273,1.0,2.0,55,0.00,,,0.00,105,Wunderground v.1.15,2013-07-30 17:12:00,
2013-07-30 13:18:00,77.4,60.0,30.07,WSW,254,1.0,2.0,55,0.00,,,0.00,204,Wunderground v.1.15,2013-07-30 17:18:00,
2013-07-30 13:24:00,77.7,58.7,30.06,West,268,1.0,3.0,52,0.00,,,0.00,148,Wunderground v.1.15,2013-07-30 17:24:00,
2013-07-30 13:29:00,78.8,60.7,30.06,SSE,162,1.0,3.0,54,0.00,,,0.00,156,Wunderground v.1.15,2013-07-30 17:29:00,
2013-07-30 13:34:00,80.7,60.3,30.07,South,190,1.0,1.0,50,0.00,,,0.00,165,Wunderground v.1.15,2013-07-30 17:34:00,
2013-07-30 13:39:00,80.3,60.0,30.06,South,171,1.0,1.0,50,0.00,,,0.00,114,Wunderground v.1.15,2013-07-30 17:39:00,
2013-07-30 13:44:00,79.1,61.0,30.06,South,184,1.0,1.0,54,0.00,,,0.00,113,Wunderground v.1.15,2013-07-30 17:44:00,
2013-07-30 13:50:00,78.2,61.2,30.06,SSE,167,1.0,1.0,56,0.00,,,0.00,90,Wunderground v.1.15,2013-07-30 17:50:00,
2013-07-30 13:55:00,77.5,62.5,30.06,SSE,168,1.0,1.0,60,0.00,,,0.00,127,Wunderground v.1.15,2013-07-30 17:55:00,
2013-07-30 14:00:00,78.1,62.6,30.06,ESE,109,1.0,1.0,59,0.00,,,0.00,169,Wunderground v.1.15,2013-07-30 18:00:00,
2013-07-30 14:06:00,77.3,62.3,30.06,SE,134,2.0,2.0,60,0.00,,,0.00,135,Wunderground v.1.15,2013-07-30 18:06:00,
2013-07-30 14:11:00,76.8,61.9,30.06,SE,137,2.0,2.0,60,0.00,,,0.00,151,Wunderground v.1.15,2013-07-30 18:11:00,
2013-07-30 14:16:00,76.7,62.2,30.06,SE,142,1.0,2.0,61,0.00,,,0.00,162,Wunderground v.1.15,2013-07-30 18:16:00,
2013-07-30 14:21:00,76.4,62.4,30.06,ESE,121,1.0,1.0,62,0.00,,,0.00,192,Wunderground v.1.15,2013-07-30 18:21:00,
2013-07-30 14:27:00,76.6,63.1,30.06,SSE,148,1.0,2.0,63,0.00,,,0.00,174,Wunderground v.1.15,2013-07-30 18:27:00,
2013-07-30 14:32:00,76.2,62.7,30.06,SSE,154,1.0,1.0,63,0.00,,,0.00,172,Wunderground v.1.15,2013-07-30 18:32:00,
2013-07-30 14:38:00,75.8,63.2,30.06,ENE,68,1.0,3.0,65,0.00,,,0.00,156,Wunderground v.1.15,2013-07-30 18:38:00,
2013-07-30 14:44:00,75.8,64.1,30.06,North,5,0.0,1.0,67,0.00,,,0.00,128,Wunderground v.1.15,2013-07-30 18:44:00,
2013-07-30 14:50:00,75.0,62.9,30.06,South,189,0.0,0.0,66,0.00,,,0.00,156,Wunderground v.1.15,2013-07-30 18:50:00,
2013-07-30 14:56:00,74.9,62.8,30.06,SSE,167,1.0,2.0,66,0.00,,,0.00,202,Wunderground v.1.15,2013-07-30 18:56:00,
2013-07-30 15:02:00,75.4,63.7,30.06,SE,146,0.0,1.0,67,0.00,,,0.00,113,Wunderground v.1.15,2013-07-30 19:02:00,
2013-07-30 15:08:00,74.7,63.4,30.06,NNW,338,0.0,3.0,68,0.00,,,0.00,109,Wunderground v.1.15,2013-07-30 19:08:00,
2013-07-30 15:13:00,74.3,63.1,30.06,South,182,0.0,1.0,68,0.00,,,0.00,134,Wunderground v.1.15,2013-07-30 19:13:00,
2013-07-30 15:18:00,74.7,63.0,30.06,South,175,1.0,3.0,67,0.00,,,0.00,142,Wunderground v.1.15,2013-07-30 19:18:00,
2013-07-30 15:24:00,75.4,63.7,30.06,SE,127,1.0,1.0,67,0.00,,,0.00,315,Wunderground v.1.15,2013-07-30 19:24:00,
2013-07-30 15:29:00,76.2,62.7,30.06,ESE,123,1.0,2.0,63,0.00,,,0.00,160,Wunderground v.1.15,2013-07-30 19:29:00,
2013-07-30 15:34:00,76.2,64.0,30.06,South,176,1.0,1.0,66,0.00,,,0.00,188,Wunderground v.1.15,2013-07-30 19:34:00,
2013-07-30 15:39:00,75.9,62.8,30.06,South,175,1.0,2.0,64,0.00,,,0.00,81,Wunderground v.1.15,2013-07-30 19:39:00,
2013-07-30 15:44:00,75.2,63.1,30.05,ESE,109,1.0,1.0,66,0.00,,,0.00,640,Wunderground v.1.15,2013-07-30 19:44:00,
2013-07-30 15:48:00,75.4,63.2,30.05,SSE,167,1.0,1.0,66,0.00,,,0.00,745,Wunderground v.1.15,2013-07-30 19:48:00,
2013-07-30 15:53:00,76.4,63.8,30.05,ESE,107,1.0,2.0,65,0.00,,,0.00,603,Wunderground v.1.15,2013-07-30 19:53:00,
2013-07-30 15:58:00,76.8,63.2,30.05,SE,137,1.0,3.0,63,0.00,,,0.00,703,Wunderground v.1.15,2013-07-30 19:58:00,
2013-07-30 16:03:00,77.1,63.5,30.05,South,179,1.0,1.0,63,0.00,,,0.00,682,Wunderground v.1.15,2013-07-30 20:03:00,
2013-07-30 16:08:00,77.6,64.0,30.05,ESE,121,0.0,2.0,63,0.00,,,0.00,670,Wunderground v.1.15,2013-07-30 20:08:00,
2013-07-30 16:14:00,77.7,63.2,30.05,SE,139,1.0,3.0,61,0.00,,,0.00,628,Wunderground v.1.15,2013-07-30 20:14:00,
2013-07-30 16:19:00,77.5,63.9,30.05,South,169,1.0,1.0,63,0.00,,,0.00,635,Wunderground v.1.15,2013-07-30 20:19:00,
2013-07-30 16:26:00,77.4,63.4,30.04,SE,128,1.0,3.0,62,0.00,,,0.00,615,Wunderground v.1.15,2013-07-30 20:26:00,
2013-07-30 16:31:00,77.8,64.2,30.04,ESE,118,1.0,3.0,63,0.00,,,0.00,599,Wunderground v.1.15,2013-07-30 20:31:00,
2013-07-30 16:38:00,77.8,64.6,30.05,SE,125,1.0,3.0,64,0.00,,,0.00,580,Wunderground v.1.15,2013-07-30 20:38:00,
2013-07-30 16:43:00,78.2,64.1,30.05,SE,132,1.0,1.0,62,0.00,,,0.00,563,Wunderground v.1.15,2013-07-30 20:43:00,
2013-07-30 16:49:00,78.0,63.0,30.05,SE,131,1.0,2.0,60,0.00,,,0.00,552,Wunderground v.1.15,2013-07-30 20:49:00,
2013-07-30 16:54:00,77.4,63.4,30.04,SE,141,1.0,2.0,62,0.00,,,0.00,534,Wunderground v.1.15,2013-07-30 20:54:00,
2013-07-30 17:00:00,77.5,63.5,30.04,South,174,1.0,1.0,62,0.00,,,0.00,526,Wunderground v.1.15,2013-07-30 21:00:00,
2013-07-30 17:05:00,77.6,64.0,30.05,SE,136,1.0,1.0,63,0.00,,,0.00,487,Wunderground v.1.15,2013-07-30 21:05:00,
2013-07-30 17:10:00,77.8,64.2,30.04,ESE,119,0.0,2.0,63,0.00,,,0.00,459,Wunderground v.1.15,2013-07-30 21:10:00,
2013-07-30 17:16:00,77.7,64.5,30.05,ESE,123,1.0,2.0,64,0.00,,,0.00,183,Wunderground v.1.15,2013-07-30 21:16:00,
2013-07-30 17:21:00,77.1,64.4,30.05,SSE,155,0.0,0.0,65,0.00,,,0.00,359,Wunderground v.1.15,2013-07-30 21:21:00,
2013-07-30 17:26:00,77.0,64.3,30.05,South,174,0.0,1.0,65,0.00,,,0.00,406,Wunderground v.1.15,2013-07-30 21:26:00,
2013-07-30 17:32:00,76.8,63.7,30.04,ESE,121,1.0,1.0,64,0.00,,,0.00,427,Wunderground v.1.15,2013-07-30 21:32:00,
2013-07-30 17:38:00,76.7,64.0,30.04,SSE,155,1.0,1.0,65,0.00,,,0.00,406,Wunderground v.1.15,2013-07-30 21:38:00,
2013-07-30 17:43:00,76.6,65.2,30.04,SSE,155,0.0,0.0,68,0.00,,,0.00,149,Wunderground v.1.15,2013-07-30 21:43:00,
2013-07-30 17:49:00,75.9,64.2,30.05,SSE,155,0.0,0.0,67,0.00,,,0.00,234,Wunderground v.1.15,2013-07-30 21:49:00,
2013-07-30 17:54:00,75.6,64.3,30.04,SSE,165,0.0,1.0,68,0.00,,,0.00,373,Wunderground v.1.15,2013-07-30 21:54:00,
2013-07-30 18:00:00,75.8,64.1,30.04,SSE,148,0.0,0.0,67,0.00,,,0.00,336,Wunderground v.1.15,2013-07-30 22:00:00,
2013-07-30 18:05:00,75.9,64.6,30.05,SSE,163,0.0,1.0,68,0.00,,,0.00,311,Wunderground v.1.15,2013-07-30 22:05:00,
2013-07-30 18:10:00,75.9,64.6,30.05,SSE,163,0.0,0.0,68,0.00,,,0.00,192,Wunderground v.1.15,2013-07-30 22:10:00,
2013-07-30 18:16:00,75.9,65.0,30.05,SSE,153,0.0,0.0,69,0.00,,,0.00,262,Wunderground v.1.15,2013-07-30 22:16:00,
2013-07-30 18:22:00,75.6,63.9,30.05,SE,140,0.0,0.0,67,0.00,,,0.00,79,Wunderground v.1.15,2013-07-30 22:22:00,
2013-07-30 18:28:00,75.2,64.3,30.05,ESE,102,0.0,0.0,69,0.00,,,0.00,111,Wunderground v.1.15,2013-07-30 22:28:00,
2013-07-30 18:33:00,74.9,64.0,30.05,East,101,0.0,0.0,69,0.00,,,0.00,47,Wunderground v.1.15,2013-07-30 22:33:00,
2013-07-30 18:39:00,74.9,64.5,30.06,East,101,0.0,0.0,70,0.00,,,0.00,109,Wunderground v.1.15,2013-07-30 22:39:00,
2013-07-30 18:44:00,74.6,64.2,30.06,ESE,102,0.0,0.0,70,0.00,,,0.00,40,Wunderground v.1.15,2013-07-30 22:44:00,
2013-07-30 18:49:00,74.1,64.1,30.06,ESE,102,0.0,0.0,71,0.00,,,0.00,53,Wunderground v.1.15,2013-07-30 22:49:00,
2013-07-30 18:55:00,73.7,64.5,30.06,ESE,102,0.0,0.0,73,0.00,,,0.00,51,Wunderground v.1.15,2013-07-30 22:55:00,
2013-07-30 19:00:00,73.6,64.8,30.06,ESE,102,0.0,0.0,74,0.00,,,0.00,40,Wunderground v.1.15,2013-07-30 23:00:00,
2013-07-30 19:06:00,73.4,64.6,30.06,ESE,102,0.0,0.0,74,0.00,,,0.00,21,Wunderground v.1.15,2013-07-30 23:06:00,
2013-07-30 19:11:00,73.0,64.6,30.06,ESE,102,0.0,0.0,75,0.00,,,0.00,23,Wunderground v.1.15,2013-07-30 23:11:00,
2013-07-30 19:17:00,72.5,65.2,30.07,ESE,102,0.0,0.0,78,0.00,,,0.00,16,Wunderground v.1.15,2013-07-30 23:17:00,
2013-07-30 19:22:00,72.0,64.8,30.07,ESE,102,0.0,0.0,78,0.00,,,0.00,12,Wunderground v.1.15,2013-07-30 23:22:00,
2013-07-30 19:28:00,71.6,64.7,30.07,ESE,102,0.0,0.0,79,0.00,,,0.00,12,Wunderground v.1.15,2013-07-30 23:28:00,
2013-07-30 19:33:00,71.2,64.7,30.07,ESE,102,0.0,0.0,80,0.00,,,0.00,9,Wunderground v.1.15,2013-07-30 23:33:00,
2013-07-30 19:39:00,70.9,64.4,30.07,ESE,102,0.0,0.0,80,0.00,,,0.00,11,Wunderground v.1.15,2013-07-30 23:39:00,
2013-07-30 19:44:00,70.7,64.6,30.07,ESE,102,0.0,0.0,81,0.00,,,0.00,11,Wunderground v.1.15,2013-07-30 23:44:00,
2013-07-30 19:49:00,70.6,64.5,30.07,ESE,102,0.0,0.0,81,0.00,,,0.00,5,Wunderground v.1.15,2013-07-30 23:49:00,
2013-07-30 19:55:00,70.4,64.6,30.08,ESE,102,0.0,0.0,82,0.00,,,0.00,0,Wunderground v.1.15,2013-07-30 23:55:00,
2013-07-30 20:00:00,70.2,64.4,30.08,ESE,102,0.0,0.0,82,0.00,,,0.00,0,Wunderground v.1.15,2013-07-31 00:00:00,
2013-07-30 20:06:00,69.9,64.5,30.08,ESE,102,0.0,0.0,83,0.00,,,0.00,0,Wunderground v.1.15,2013-07-31 00:06:00,
2013-07-30 20:11:00,69.4,64.4,30.08,ESE,102,0.0,0.0,84,0.00,,,0.00,0,Wunderground v.1.15,2013-07-31 00:11:00,
2013-07-30 20:17:00,69.1,64.7,30.08,ESE,102,0.0,0.0,86,0.00,,,0.00,0,Wunderground v.1.15,2013-07-31 00:17:00,
2013-07-30 20:23:00,68.5,64.5,30.08,ESE,102,0.0,0.0,87,0.00,,,0.00,0,Wunderground v.1.15,2013-07-31 00:23:00,
2013-07-30 20:29:00,68.3,64.3,30.08,ESE,102,0.0,0.0,87,0.00,,,0.00,0,Wunderground v.1.15,2013-07-31 00:29:00,
2013-07-30 20:34:00,68.2,64.5,30.08,ESE,102,0.0,0.0,88,0.00,,,0.00,0,Wunderground v.1.15,2013-07-31 00:34:00,
2013-07-30 20:41:00,67.9,64.5,30.08,ESE,102,0.0,0.0,89,0.00,,,0.00,0,Wunderground v.1.15,2013-07-31 00:41:00,
2013-07-30 20:47:00,67.8,64.8,30.08,ESE,102,0.0,0.0,90,0.00,,,0.00,0,Wunderground v.1.15,2013-07-31 00:47:00,
2013-07-30 20:53:00,67.7,64.7,30.09,ESE,102,0.0,0.0,90,0.00,,,0.00,0,Wunderground v.1.15,2013-07-31 00:53:00,
2013-07-30 20:59:00,67.8,64.4,30.09,ESE,102,0.0,0.0,89,0.00,,,0.00,0,Wunderground v.1.15,2013-07-31 00:59:00,
2013-07-30 21:05:00,67.8,64.4,30.09,ESE,102,0.0,0.0,89,0.00,,,0.00,0,Wunderground v.1.15,2013-07-31 01:05:00,
2013-07-30 21:10:00,67.6,64.2,30.09,ESE,102,0.0,0.0,89,0.00,,,0.00,0,Wunderground v.1.15,2013-07-31 01:10:00,
2013-07-30 21:16:00,67.5,64.1,30.09,ESE,102,0.0,0.0,89,0.00,,,0.00,0,Wunderground v.1.15,2013-07-31 01:16:00,
2013-07-30 21:21:00,67.4,64.4,30.09,ESE,102,0.0,0.0,90,0.00,,,0.00,0,Wunderground v.1.15,2013-07-31 01:21:00,
2013-07-30 21:27:00,67.4,64.4,30.09,ESE,102,0.0,0.0,90,0.00,,,0.00,0,Wunderground v.1.15,2013-07-31 01:27:00,
2013-07-30 21:32:00,67.3,64.6,30.09,ESE,102,0.0,0.0,91,0.00,,,0.00,0,Wunderground v.1.15,2013-07-31 01:32:00,
2013-07-30 21:38:00,67.0,64.3,30.09,ESE,102,0.0,0.0,91,0.00,,,0.00,0,Wunderground v.1.15,2013-07-31 01:38:00,
2013-07-30 21:43:00,66.9,64.2,30.10,ESE,102,0.0,0.0,91,0.00,,,0.00,0,Wunderground v.1.15,2013-07-31 01:43:00,
2013-07-30 21:49:00,66.7,64.0,30.09,ESE,102,0.0,0.0,91,0.00,,,0.00,0,Wunderground v.1.15,2013-07-31 01:49:00,
2013-07-30 21:54:00,66.5,64.1,30.09,ESE,102,0.0,0.0,92,0.00,,,0.00,0,Wunderground v.1.15,2013-07-31 01:54:00,
2013-07-30 22:00:00,66.2,63.8,30.10,ESE,102,0.0,0.0,92,0.00,,,0.00,0,Wunderground v.1.15,2013-07-31 02:00:00,
2013-07-30 22:05:00,66.1,63.7,30.09,ESE,102,0.0,0.0,92,0.00,,,0.00,0,Wunderground v.1.15,2013-07-31 02:05:00,
2013-07-30 22:11:00,65.9,63.8,30.10,ESE,102,0.0,0.0,93,0.00,,,0.00,0,Wunderground v.1.15,2013-07-31 02:11:00,
2013-07-30 22:16:00,65.6,63.5,30.10,ESE,102,0.0,0.0,93,0.00,,,0.00,0,Wunderground v.1.15,2013-07-31 02:16:00,
2013-07-30 22:21:00,65.4,63.3,30.10,ESE,102,0.0,0.0,93,0.00,,,0.00,0,Wunderground v.1.15,2013-07-31 02:21:00,
2013-07-30 22:27:00,65.2,63.4,30.10,ESE,102,0.0,0.0,94,0.00,,,0.00,0,Wunderground v.1.15,2013-07-31 02:27:00,
2013-07-30 22:33:00,65.0,63.2,30.10,ESE,102,0.0,0.0,94,0.00,,,0.00,0,Wunderground v.1.15,2013-07-31 02:33:00,
2013-07-30 22:39:00,64.9,63.1,30.10,ESE,102,0.0,0.0,94,0.00,,,0.00,0,Wunderground v.1.15,2013-07-31 02:39:00,
2013-07-30 22:44:00,64.8,63.0,30.10,ESE,102,0.0,0.0,94,0.00,,,0.00,0,Wunderground v.1.15,2013-07-31 02:44:00,
2013-07-30 22:49:00,64.7,62.9,30.09,ESE,102,0.0,0.0,94,0.00,,,0.00,0,Wunderground v.1.15,2013-07-31 02:49:00,
2013-07-30 22:54:00,64.7,62.9,30.09,ESE,102,0.0,0.0,94,0.00,,,0.00,0,Wunderground v.1.15,2013-07-31 02:54:00,
2013-07-30 23:00:00,65.0,62.9,30.09,ESE,102,0.0,0.0,93,0.00,,,0.00,0,Wunderground v.1.15,2013-07-31 03:00:00,
2013-07-30 23:05:00,65.0,62.9,30.10,ESE,102,0.0,0.0,93,0.00,,,0.00,0,Wunderground v.1.15,2013-07-31 03:05:00,
2013-07-30 23:12:00,65.1,63.0,30.09,ESE,102,0.0,0.0,93,0.00,,,0.00,0,Wunderground v.1.15,2013-07-31 03:12:00,
2013-07-30 23:18:00,65.0,62.6,30.09,ESE,102,0.0,0.0,92,0.00,,,0.00,0,Wunderground v.1.15,2013-07-31 03:18:00,
2013-07-30 23:23:00,64.9,62.5,30.09,ESE,102,0.0,0.0,92,0.00,,,0.00,0,Wunderground v.1.15,2013-07-31 03:23:00,
2013-07-30 23:28:00,64.8,62.7,30.09,ESE,102,0.0,0.0,93,0.00,,,0.00,0,Wunderground v.1.15,2013-07-31 03:28:00,
2013-07-30 23:34:00,64.8,62.7,30.10,ESE,102,0.0,0.0,93,0.00,,,0.00,0,Wunderground v.1.15,2013-07-31 03:34:00,
2013-07-30 23:40:00,64.6,62.5,30.09,ESE,102,0.0,0.0,93,0.00,,,0.00,0,Wunderground v.1.15,2013-07-31 03:40:00,
2013-07-30 23:45:00,64.6,62.5,30.09,ESE,102,0.0,0.0,93,0.00,,,0.00,0,Wunderground v.1.15,2013-07-31 03:45:00,
2013-07-30 23:50:00,64.5,62.7,30.09,ESE,102,0.0,0.0,94,0.00,,,0.00,0,Wunderground v.1.15,2013-07-31 03:50:00,
2013-07-30 23:55:00,64.5,62.7,30.09,ESE,102,0.0,0.0,94,0.00,,,0.00,0,Wunderground v.1.15,2013-07-31 03:55:00,